STARLINK-31904, 59657

Orbit data source: Space-Track

STARLINK-31904, 59657 is a payload satellite owned by SpaceX/Seattle (US) in LEO that was launched on Mon, 06 May 2024 UTC via an FALCON 9 launch vehicle from the Air Force Eastern Test Range (AFETR). Payload-class satellites include a variety of spacecraft equipped with specific instruments for various scientific and technological missions. These include communications satellites like Starlink; space stations such as the ISS; scientific satellites like the Hubble; Earth observation satellites from companies like Planet Labs, Umbra, and HawkEye 360; GPS; miniature CubeSats for education and research; and military/defense satellites.

Loading next visibility...
Identifier
59657, 2024-084D
Orbit
LEO
Country
Flag of USUS
Related business
Manufacturer
SpaceX/Seattle
Mission
Operational Commercial Communications
Bus & Motor
STARLINK V2M, Unknown motor
Mass
730 kg wet, ~700 kg dry
Launch date (UTC)
2024-05-06 (2 years ago)
Launch vehicle
FALCON 9
Launch site
Air Force Eastern Test Range (AFETR)
Object type
Payload
Rocket body
Debris
Shape & HBR
Box + 2 Pan, 17.7 m
Radar Cross Section
33.884 m², Large (>1 m²)

Expand to show TLE details & history
Last TLE update: 7 hours ago

TLE from 7 hours ago
0 STARLINK-31904
1 59657U 24084D   26073.53662543  .00000490  00000-0  27321-4 0  9994
2 59657  43.0061  14.4927 0000979 293.5921  66.4828 15.27587952105114
Epoch: 2026-03-14T12:52Z
TLE epoch observation values (Epoch: 2026-03-14T12:52:44.437Z)
Latitude
Longitude
9.15116°
Altitude
482.533 km
Speed
7.626 km/s
True Right ascension
00h 57m 58s
True Declination
0° 00' 00"
Sunlit
Object was in daylight at epoch
Visualization orbit readout
Latitude
Unknown
Longitude
Unknown
Altitude
Unknown
Speed
Unknown
Apparent Right ascension
Unknown
Apparent Declination
Unknown
Sunlit
N/A
Visualization observer readout
Local Sidereal Time
00:03:47
Azimuth
Unknown
Elevation
Unknown
Doppler factor
Unknown
Orbital elements
Apogee altitude
485.641 km
Perigee altitude
484.298 km
Semi-major axis
6,863.106 km
Eccentricity
0.0001
Inclination
43.0061°
RAAN
14.4927°
Arg. of periapsis
293.5921°
True anomaly
66.49309°
Mean anomaly
66.4828°
Eccentric anomaly
66.48794°
Mean motion
3.81735 °/min
Orbital period
94.31 mins
BSTAR
0.000027321
Loading maneuver chart data...
Computing Atmospheric mass density...
Loading historical data...
Loading historical data...
Loading historical data...
Loading historical data...
Loading historical data...
Loading historical data...
Loading historical data...

Documentation

Showing up to 5 results
|